Weather History for KLXN - January, 2014

Change the Weather History Date:

Friday, January 24, 2014

  Actual Average (KEAR) Record (KEAR)
Temperature  
Mean Temperature 33 °F 25 °F  
Max Temperature 57 °F 36 °F - ()
Min Temperature 9 °F 13 °F - ()
Degree Days  
Heating Degree Days 32 40  
Month to date heating degree days 973  
Since 1 July heating degree days 3616  
Cooling Degree Days 0 0  
Month to date cooling degree days 0  
Year to date cooling degree days 0  
Moisture  
Dew Point 18 °F    
Average Humidity 52    
Maximum Humidity 79    
Minimum Humidity 28    
Precipitation  
Precipitation 0.00 in - - ()
Sea Level Pressure  
Sea Level Pressure 30.03 in    
Wind  
Wind Speed 12 mph (WNW)    
Max Wind Speed 30 mph    
Max Gust Speed 40 mph    
Visibility 10 miles    
Events      
T = Trace of Precipitation, MM = Missing Value Source: NWS Daily Summary

Daily Weather History Graph

Daily Weather History Graph

Search for Another Location

Airport or City:

Trip Planner

Search our weather history database for the weather conditions in past years. The results will help you decide how hot, cold, wet, or windy it might be!

Date:

Astronomy

Jan. 24, 2014 Rise Set
Actual Time 7:56 AM CST 5:46 PM CST
Civil Twilight 7:26 AM CST 6:16 PM CST
Nautical Twilight 6:53 AM CST 6:49 PM CST
Astronomical Twilight 6:20 AM CST 7:22 PM CST
Moon 1:24 AM CST (1/24) 12:07 PM CST (1/24)
Length of Visible Light 10h 49m
Length of Day
9h 50m
Last Quarter, 44% of the Moon is Illuminated
Jan 24
Last Quarter
Jan 30
New
Feb 6
First Quarter
Feb 14
Full
Feb 22
Last Quarter

Hourly Weather History & Observations

Time (CST) Temp. Windchill Dew Point Humidity Pressure Visibility Wind Dir Wind Speed Gust Speed Precip Events Conditions
12:15 AM 12.7 °F -0.4 °F 4.8 °F 71% 30.35 in 10.0 mi WSW 10.4 mph - N/A   Clear
12:35 AM 12.4 °F 0.9 °F 4.6 °F 71% 30.34 in 10.0 mi WSW 8.1 mph - N/A   Clear
12:55 AM 12.2 °F -1.0 °F 5.0 °F 73% 30.31 in 10.0 mi SW 10.4 mph - N/A   Clear
1:15 AM 11.1 °F -1.6 °F 4.1 °F 73% 30.30 in 10.0 mi SW 9.2 mph - N/A   Clear
1:35 AM 10.2 °F -0.6 °F 4.1 °F 76% 30.29 in 10.0 mi WSW 6.9 mph - N/A   Clear
1:55 AM 10.0 °F 0.4 °F 3.9 °F 76% 30.28 in 10.0 mi WSW 5.8 mph - N/A   Clear
2:15 AM 10.0 °F -1.9 °F 4.1 °F 77% 30.27 in 10.0 mi WSW 8.1 mph - N/A   Clear
2:35 AM 9.1 °F -4.0 °F 3.6 °F 78% 30.26 in 10.0 mi SW 9.2 mph - N/A   Clear
2:55 AM 9.0 °F -3.2 °F 3.6 °F 79% 30.24 in 10.0 mi WSW 8.1 mph - N/A   Clear
3:15 AM 9.0 °F -3.2 °F 3.2 °F 77% 30.23 in 10.0 mi SW 8.1 mph - N/A   Clear
3:35 AM 9.1 °F -4.0 °F 3.4 °F 77% 30.21 in 10.0 mi SW 9.2 mph - N/A   Clear
3:55 AM 10.0 °F -0.9 °F 3.6 °F 75% 30.20 in 10.0 mi WSW 6.9 mph - N/A   Clear
4:15 AM 9.9 °F 3.4 °F 3.6 °F 76% 30.18 in 10.0 mi WSW 3.5 mph - N/A   Clear
4:35 AM 12.4 °F -1.6 °F 5.0 °F 72% 30.16 in 10.0 mi WSW 11.5 mph - N/A   Clear
4:55 AM 17.8 °F 4.0 °F 3.9 °F 55% 30.14 in 10.0 mi WSW 13.8 mph 20.7 mph N/A   Clear
5:15 AM 15.4 °F 3.8 °F 3.9 °F 60% 30.14 in 10.0 mi WSW 9.2 mph - N/A   Clear
5:35 AM 13.5 °F 3.3 °F 3.6 °F 65% 30.13 in 10.0 mi WSW 6.9 mph - N/A   Clear
5:55 AM 13.6 °F 2.5 °F 4.3 °F 66% 30.11 in 10.0 mi WSW 8.1 mph - N/A   Clear
6:15 AM 16.9 °F 4.8 °F 5.9 °F 62% 30.09 in 10.0 mi West 10.4 mph - N/A   Clear
6:35 AM 20.3 °F 10.6 °F 7.5 °F 58% 30.09 in 10.0 mi West 8.1 mph - N/A   Clear
6:55 AM 22.5 °F 11.7 °F 8.6 °F 55% 30.09 in 10.0 mi West 10.4 mph - N/A   Clear
7:15 AM 21.6 °F 13.0 °F 8.8 °F 58% 30.08 in 10.0 mi West 6.9 mph - N/A   Clear
7:35 AM 21.4 °F 11.1 °F 9.1 °F 59% 30.08 in 10.0 mi West 9.2 mph - N/A   Clear
8:00 AM 14.7 °F 3.8 °F 5.5 °F 67% 30.08 in 10.0 mi NW 8.1 mph - N/A   Scattered Clouds
8:15 AM 16.5 °F 6.0 °F 7.5 °F 68% 30.07 in 10.0 mi WNW 8.1 mph - N/A   Mostly Cloudy
8:35 AM 21.7 °F 13.2 °F 10.0 °F 61% 30.06 in 10.0 mi WNW 6.9 mph - N/A   Overcast
8:55 AM 24.4 °F 18.6 °F 11.3 °F 57% 30.06 in 10.0 mi NW 4.6 mph - N/A   Overcast
9:15 AM 26.8 °F 19.3 °F 12.2 °F 54% 30.05 in 10.0 mi WNW 6.9 mph - N/A   Overcast
9:35 AM 30.0 °F 21.7 °F 13.3 °F 50% 30.06 in 10.0 mi WNW 9.2 mph - N/A   Overcast
9:55 AM 32.4 °F 23.5 °F 14.0 °F 47% 30.06 in 10.0 mi WNW 11.5 mph - N/A   Overcast
10:15 AM 35.8 °F 27.3 °F 13.6 °F 40% 30.06 in 10.0 mi WNW 12.7 mph - N/A   Overcast
10:35 AM 39.4 °F 30.1 °F 13.1 °F 34% 30.06 in 10.0 mi WNW 18.4 mph 23.0 mph N/A   Overcast
10:55 AM 41.2 °F 33.4 °F 13.8 °F 33% 30.05 in 10.0 mi WNW 15.0 mph 19.6 mph N/A   Overcast
11:15 AM 44.6 °F 37.4 °F 15.3 °F 31% 30.05 in 10.0 mi WNW 16.1 mph 19.6 mph N/A   Overcast
11:35 AM 46.2 °F 38.7 °F 16.5 °F 31% 30.04 in 10.0 mi WNW 19.6 mph - N/A   Overcast
11:55 AM 48.0 °F - 17.6 °F 30% 30.04 in 10.0 mi WNW 20.7 mph 24.2 mph N/A   Overcast
12:15 PM 50.4 °F - 19.0 °F 29% 30.02 in 10.0 mi WNW 20.7 mph 28.8 mph N/A   Scattered Clouds
12:35 PM 52.9 °F - 20.1 °F 28% 30.00 in 10.0 mi WNW 23.0 mph 28.8 mph N/A   Scattered Clouds
12:55 PM 54.1 °F - 25.7 °F 33% 29.99 in 10.0 mi NW 21.9 mph 34.5 mph N/A   Scattered Clouds
1:15 PM 54.5 °F - 26.4 °F 34% 29.97 in 10.0 mi NW 27.6 mph 38.0 mph N/A   Mostly Cloudy
1:35 PM 54.3 °F - 27.5 °F 36% 29.97 in 10.0 mi NW 29.9 mph 35.7 mph N/A   Overcast
1:55 PM 55.6 °F - 27.9 °F 35% 29.95 in 10.0 mi NW 27.6 mph 34.5 mph N/A   Mostly Cloudy
2:15 PM 56.3 °F - 28.2 °F 34% 29.94 in 10.0 mi NNW 29.9 mph 40.3 mph N/A   Mostly Cloudy
2:35 PM 55.4 °F - 26.6 °F 33% 29.93 in 10.0 mi NW 19.6 mph 23.0 mph N/A   Mostly Cloudy
2:55 PM 56.3 °F - 28.2 °F 34% 29.92 in 10.0 mi NW 24.2 mph 31.1 mph N/A   Scattered Clouds
3:15 PM 56.3 °F - 28.6 °F 35% 29.92 in 10.0 mi NW 17.3 mph 25.3 mph N/A   Mostly Cloudy
3:35 PM 57.2 °F - 28.0 °F 33% 29.92 in 10.0 mi WNW 18.4 mph 27.6 mph N/A   Mostly Cloudy
3:55 PM 57.2 °F - 27.5 °F 32% 29.91 in 10.0 mi NW 17.3 mph 28.8 mph N/A   Mostly Cloudy
4:15 PM 57.2 °F - 27.3 °F 32% 29.90 in 10.0 mi NW 24.2 mph 28.8 mph N/A   Mostly Cloudy
4:40 PM 56.5 °F - 27.5 °F 33% 29.90 in 10.0 mi NW 21.9 mph 26.5 mph N/A   Mostly Cloudy
4:55 PM 55.9 °F - 27.5 °F 34% 29.91 in 10.0 mi NW 20.7 mph 31.1 mph N/A   Scattered Clouds
5:15 PM 54.3 °F - 28.4 °F 37% 29.91 in 10.0 mi NW 18.4 mph 31.1 mph N/A   Clear
5:35 PM 52.5 °F - 28.2 °F 39% 29.90 in 10.0 mi NW 12.7 mph - N/A   Clear
5:55 PM 50.9 °F - 28.2 °F 42% 29.90 in 10.0 mi NW 9.2 mph - N/A   Scattered Clouds
6:15 PM 48.7 °F - 27.7 °F 44% 29.89 in 10.0 mi West 9.2 mph - N/A   Mostly Cloudy
6:35 PM 44.6 °F 39.2 °F 26.6 °F 49% 29.89 in 10.0 mi West 10.4 mph - N/A   Clear
6:55 PM 43.5 °F 38.3 °F 27.0 °F 52% 29.88 in 10.0 mi WSW 9.2 mph - N/A   Clear
7:15 PM 43.7 °F 38.6 °F 27.5 °F 53% 29.89 in 10.0 mi West 9.2 mph - N/A   Scattered Clouds
7:40 PM 46.6 °F - 29.3 °F 51% 29.88 in 10.0 mi West 11.5 mph - N/A   Mostly Cloudy
8:00 PM 45.7 °F 40.2 °F 29.1 °F 52% 29.88 in 10.0 mi West 11.5 mph - N/A   Scattered Clouds
8:15 PM 45.5 °F 39.9 °F 28.8 °F 52% 29.89 in 10.0 mi West 11.5 mph - N/A   Scattered Clouds
8:35 PM 45.1 °F 39.1 °F 29.7 °F 55% 29.88 in 10.0 mi WNW 12.7 mph - N/A   Clear
9:00 PM 44.6 °F 38.8 °F 29.1 °F 55% 29.89 in 10.0 mi WNW 11.5 mph - N/A   Clear
9:15 PM 42.6 °F 36.8 °F 28.2 °F 57% 29.89 in 10.0 mi NW 10.4 mph - N/A   Clear
9:35 PM 39.6 °F 32.5 °F 27.0 °F 61% 29.90 in 10.0 mi NW 11.5 mph - N/A   Scattered Clouds
9:55 PM 39.6 °F 32.5 °F 27.5 °F 62% 29.91 in 10.0 mi NW 11.5 mph - N/A   Overcast
10:15 PM 42.8 °F 36.6 °F 28.2 °F 56% 29.91 in 10.0 mi WNW 11.5 mph - N/A   Overcast
10:35 PM 43.0 °F 36.0 °F 28.4 °F 56% 29.91 in 10.0 mi WNW 13.8 mph - N/A   Overcast
10:55 PM 44.6 °F 38.1 °F 28.4 °F 53% 29.91 in 10.0 mi NW 13.8 mph - N/A   Overcast
11:15 PM 47.1 °F - 29.8 °F 51% 29.92 in 10.0 mi WNW 15.0 mph - N/A   Overcast
11:35 PM 46.9 °F - 30.2 °F 52% 29.92 in 10.0 mi NW 16.1 mph - N/A   Mostly Cloudy
11:55 PM 50.0 °F - 31.6 °F 49% 29.93 in 10.0 mi NW 21.9 mph 31.1 mph N/A   Scattered Clouds